Location: La Bastide
(43.1661°N, 1.2755°E)
Time: 10:36:11
(UTC+00:00)

Cosmos 1745 Rocket - Pass Details

Date: 13 December 2025
Orbit: 951 x 998 km, 83.0° (Epoch: 21 January)

Event Time Altitude Azimuth Distance (km) Brightness Sun altitude
Rises 19:09:34 0° 350° (N) 3,658 7.1 -30.0°
Reaches altitude 10° 19:12:05 10° 348° (NNW) 2,702 6.4 -30.4°
Maximum altitude 19:18:14 73° 266° (W) 999 4.0 -31.5°
Drops below altitude 10° 19:24:18 10° 182° (S) 2,668 6.3 -32.6°
Sets 19:26:46 0° 181° (S) 3,609 7.0 -33.1°
